Location: ?????????
(38.4921°N, 22.9787°E)
Time: 03:17:10
(UTC+00:00)

Nadezhda 4 Rocket - Pass Details

Date: 08 December 2025
Orbit: 948 x 992 km, 82.9° (Epoch: 21 January)

Event Time Altitude Azimuth Distance (km) Brightness Sun altitude
Rises 03:19:21 0° 184° (S) 3,690 7.1 -25.4°
Reaches altitude 10° 03:21:52 10° 184° (S) 2,744 6.4 -24.9°
Maximum altitude 03:28:11 88° 97° (E) 994 4.0 -23.7°
Drops below altitude 10° 03:34:30 10° 7° (N) 2,743 6.3 -22.5°
Sets 03:37:01 0° 8° (N) 3,690 7.0 -22.0°
